Location: Lafig�re
(44.4503°N, 4.0357°E)
Time: 15:34:00
(UTC+00:00)

Vanguard 2 Rocket - Pass Details

Date: 20 June 2021
Orbit: 555 x 3325 km, 32.9° (Epoch: 28 July)

Event Time Altitude Azimuth Distance (km) Brightness Sun altitude
Rises 00:22:44 0° 275° (W) 6,427 11.2 -21.6°
Reaches altitude 10° 00:28:29 10° 265° (W) 4,929 10.5 -21.4°
Enters shadow 00:37:37 25° 221° (SW) 2,977 9.0 -21.1°
